Change the Weather History Date:

Friday, May 9, 2014

  Actual Average Record
Temperature  
Mean Temperature 68 °F -  
Max Temperature 79 °F 73 °F 87 °F (2003)
Min Temperature 59 °F 54 °F 48 °F (2012)
Cooling Degree Days 4    
Growing Degree Days 18 (Base 50)    
Moisture  
Dew Point 61 °F    
Average Humidity 79    
Maximum Humidity 98    
Minimum Humidity 44    
Precipitation  
Precipitation 0.00 in - - ()
Sea Level Pressure  
Sea Level Pressure 29.83 in    
Wind  
Wind Speed 10 mph (SSW)    
Max Wind Speed 17 mph    
Max Gust Speed 29 mph    
Visibility 10 miles    
Events Rain    
Averages and records for this station are not official NWS values.
T = Trace of Precipitation, MM = Missing Value Source: NWS Daily Summary

Daily Weather History Graph

Daily Weather History Graph

Search for Another Location

Airport or City:

Trip Planner

Search our weather history database for the weather conditions in past years. The results will help you decide how hot, cold, wet, or windy it might be!

Date:

Astronomy

May. 09, 2014 Rise Set
Actual Time 5:53 AM CDT 8:00 PM CDT
Civil Twilight 5:23 AM CDT 8:29 PM CDT
Nautical Twilight 4:47 AM CDT 9:06 PM CDT
Astronomical Twilight 4:08 AM CDT 9:45 PM CDT
Moon 3:00 PM CDT (5/9) 2:52 AM CDT (5/9)
Length of Visible Light 15h 05m
Length of Day
14h 06m
Waxing Gibbous, 74% of the Moon is Illuminated
May 9
Waxing Gibbous
May 14
Full
May 21
Last Quarter
May 28
New
Jun 5
First Quarter

Hourly Weather History & Observations

Time (CDT) Temp. Dew Point Humidity Pressure Visibility Wind Dir Wind Speed Gust Speed Precip Events Conditions
12:15 AM 70.2 °F 65.7 °F 86% 29.86 in 10.0 mi South 12.7 mph 19.6 mph N/A   Overcast
12:35 AM 69.8 °F 65.8 °F 87% 29.86 in 10.0 mi SSE 12.7 mph - N/A   Overcast
12:55 AM 69.4 °F 66.0 °F 89% 29.85 in 10.0 mi SE 8.1 mph 11.5 mph N/A   Overcast
1:15 AM 69.3 °F 66.2 °F 90% 29.84 in 10.0 mi SSE 10.4 mph - N/A   Overcast
1:35 AM 69.1 °F 66.2 °F 91% 29.85 in 10.0 mi South 10.4 mph - N/A   Overcast
1:55 AM 68.9 °F 66.2 °F 91% 29.83 in 10.0 mi South 9.2 mph - N/A   Overcast
2:15 AM 68.9 °F 66.2 °F 91% 29.81 in 10.0 mi SSE 10.4 mph - N/A   Overcast
2:35 AM 68.7 °F 66.2 °F 92% 29.81 in 10.0 mi South 11.5 mph - N/A   Overcast
2:55 AM 68.4 °F 66.2 °F 93% 29.80 in 10.0 mi SSE 12.7 mph - N/A   Mostly Cloudy
3:15 AM 68.5 °F 66.2 °F 92% 29.80 in 10.0 mi South 13.8 mph - N/A   Scattered Clouds
3:30 AM 68.9 °F 66.2 °F 91% 29.80 in 10.0 mi South 13.8 mph - N/A   Mostly Cloudy
3:55 AM 68.5 °F 66.2 °F 92% 29.79 in 10.0 mi South 12.7 mph - N/A   Overcast
4:15 AM 68.2 °F 66.4 °F 94% 29.79 in 10.0 mi South 11.5 mph - N/A   Overcast
4:35 AM 68.0 °F 66.4 °F 95% 29.79 in 10.0 mi South 9.2 mph - N/A   Overcast
5:15 AM 67.6 °F 66.4 °F 96% 29.79 in 10.0 mi South 9.2 mph - N/A   Overcast
5:35 AM 67.5 °F 66.4 °F 96% 29.78 in 10.0 mi South 8.1 mph - N/A Rain Light Rain
5:55 AM 67.5 °F 66.6 °F 97% 29.79 in 10.0 mi South 8.1 mph - N/A   Overcast
6:15 AM 67.3 °F 66.6 °F 98% 29.79 in 10.0 mi South 9.2 mph - N/A Rain Light Rain
6:35 AM 67.3 °F 66.6 °F 98% 29.80 in 10.0 mi South 8.1 mph - N/A Rain Light Rain
6:50 AM 68.0 °F 66.2 °F 94% 29.81 in 10.0 mi SSW 10.4 mph - N/A   Overcast
7:50 AM 68.0 °F 64.4 °F 88% 29.80 in 10.0 mi South 10.4 mph - N/A   Mostly Cloudy
8:45 AM 69.8 °F 64.4 °F 83% 29.85 in 10.0 mi SW 13.8 mph 21.9 mph N/A   Mostly Cloudy
9:45 AM 71.6 °F 62.6 °F 73% 29.86 in 10.0 mi West 17.3 mph - N/A   Scattered Clouds
11:48 AM 75.2 °F 60.8 °F 61% 29.84 in 10.0 mi WSW 13.8 mph - N/A   Mostly Cloudy
12:50 PM 77.0 °F 55.4 °F 47% 29.85 in 10.0 mi WSW 17.3 mph 28.8 mph N/A   Mostly Cloudy
1:50 PM 77.0 °F 57.2 °F 50% 29.83 in 10.0 mi WSW 15.0 mph 23.0 mph N/A   Mostly Cloudy
2:50 PM 77.0 °F 55.4 °F 47% 29.83 in 10.0 mi SW 11.5 mph 18.4 mph N/A   Mostly Cloudy
3:45 PM 77.0 °F 55.4 °F 47% 29.80 in 10.0 mi WSW 17.3 mph 23.0 mph N/A   Mostly Cloudy
4:45 PM 77.0 °F 53.6 °F 44% 29.80 in 10.0 mi West 17.3 mph 23.0 mph N/A   Mostly Cloudy
5:45 PM 78.8 °F 55.4 °F 44% 29.81 in 10.0 mi West 11.5 mph - N/A   Mostly Cloudy
6:50 PM 77.0 °F 53.6 °F 44% 29.82 in 10.0 mi WNW 11.5 mph - N/A   Scattered Clouds
7:45 PM 71.6 °F 55.4 °F 57% 29.83 in 10.0 mi WNW 9.2 mph - N/A   Partly Cloudy
8:45 PM 66.2 °F 53.6 °F 64% 29.86 in 10.0 mi Calm Calm - N/A   Clear
9:45 PM 66.2 °F 53.6 °F 64% 29.89 in 10.0 mi Calm Calm - N/A   Clear
10:15 PM 64.0 °F 54.0 °F 70% 29.89 in 10.0 mi Calm Calm - N/A   Clear
10:35 PM 64.0 °F 52.7 °F 67% 29.89 in 10.0 mi Calm Calm - N/A   Clear
10:55 PM 59.7 °F 54.7 °F 83% 29.90 in 10.0 mi Calm Calm - N/A   Clear
11:15 PM 60.8 °F 55.4 °F 82% 29.90 in 10.0 mi Calm Calm - N/A   Clear
11:35 PM 60.3 °F 55.6 °F 85% 29.91 in 10.0 mi Calm Calm - N/A   Clear
11:55 PM 59.4 °F 55.6 °F 87% 29.91 in 10.0 mi Calm Calm - N/A   Clear